Location: Bosdarros
(43.2167°N, 0.3667°W)
Time: 21:36:17
(UTC+00:00)

METEOR 2-8 DEB - Pass Details

Date: 31 October 2021
Orbit: 830 x 870 km, 82.5° (Epoch: 27 November)

Event Time Altitude Azimuth Distance (km) Brightness Sun altitude
Rises 20:17:03 0° 350° (N) 3,469 ? -37.2°
Reaches altitude 10° 20:19:29 10° 350° (N) 2,527 ? -37.6°
Enters shadow 20:20:12 14° 350° (N) 2,259 ? -37.8°
